Time,TemperatureF,DewpointF,PressureIn,WindDirection,WindDirectionDegrees,WindSpeedMPH,WindSpeedGustMPH,Humidity,HourlyPrecipIn,Conditions,Clouds,dailyrainin,SoftwareType,DateUTC
2013-05-07 00:07:00,56.2,52.0,29.97,SW,233,0.0,0.0,84,0.00,,,0.00,weatherlink.com 1.10,2013-05-07 07:07:00,
2013-05-07 00:22:00,55.8,51.0,29.96,SW,233,0.0,1.0,85,0.00,,,0.00,weatherlink.com 1.10,2013-05-07 07:22:00,
2013-05-07 00:37:00,55.5,51.0,29.97,SW,233,0.0,0.0,85,0.00,,,0.00,weatherlink.com 1.10,2013-05-07 07:37:00,
2013-05-07 00:52:00,55.1,51.0,29.97,SW,233,0.0,0.0,87,0.00,,,0.00,weatherlink.com 1.10,2013-05-07 07:52:00,
2013-05-07 01:07:00,54.7,51.0,29.97,SW,233,0.0,0.0,87,0.00,,,0.00,weatherlink.com 1.10,2013-05-07 08:07:00,
2013-05-07 01:22:00,53.9,51.0,29.97,SW,233,0.0,0.0,88,0.00,,,0.00,weatherlink.com 1.10,2013-05-07 08:22:00,
2013-05-07 01:37:00,53.2,50.0,29.97,SW,233,0.0,0.0,89,0.00,,,0.00,weatherlink.com 1.10,2013-05-07 08:37:00,
2013-05-07 01:52:00,52.4,49.0,29.96,SW,233,0.0,0.0,89,0.00,,,0.00,weatherlink.com 1.10,2013-05-07 08:52:00,
2013-05-07 02:07:00,52.0,50.0,29.96,SW,233,0.0,0.0,91,0.00,,,0.00,weatherlink.com 1.10,2013-05-07 09:07:00,
2013-05-07 02:22:00,51.7,49.0,29.96,SW,233,0.0,0.0,91,0.00,,,0.00,weatherlink.com 1.10,2013-05-07 09:22:00,
2013-05-07 02:37:00,51.2,49.0,29.97,SW,233,0.0,0.0,91,0.00,,,0.00,weatherlink.com 1.10,2013-05-07 09:37:00,
2013-05-07 02:52:00,50.8,49.0,29.96,SW,233,0.0,0.0,92,0.00,,,0.00,weatherlink.com 1.10,2013-05-07 09:52:00,
2013-05-07 03:07:00,50.6,49.0,29.96,SW,233,0.0,0.0,93,0.00,,,0.00,weatherlink.com 1.10,2013-05-07 10:07:00,
2013-05-07 03:22:00,50.2,48.0,29.96,SW,233,0.0,0.0,92,0.00,,,0.00,weatherlink.com 1.10,2013-05-07 10:22:00,
2013-05-07 03:37:00,49.7,48.0,29.97,SW,233,0.0,0.0,92,0.00,,,0.00,weatherlink.com 1.10,2013-05-07 10:37:00,
2013-05-07 03:52:00,49.2,47.0,29.97,SW,233,0.0,0.0,93,0.00,,,0.00,weatherlink.com 1.10,2013-05-07 10:52:00,
2013-05-07 04:07:00,49.3,48.0,29.97,SW,233,0.0,0.0,94,0.00,,,0.00,weatherlink.com 1.10,2013-05-07 11:07:00,
2013-05-07 04:22:00,49.4,48.0,29.98,SW,233,0.0,0.0,94,0.00,,,0.00,weatherlink.com 1.10,2013-05-07 11:22:00,
2013-05-07 04:37:00,49.6,48.0,29.98,SW,233,0.0,0.0,94,0.00,,,0.00,weatherlink.com 1.10,2013-05-07 11:37:00,
2013-05-07 04:52:00,49.9,49.0,29.98,SW,233,0.0,0.0,95,0.00,,,0.00,weatherlink.com 1.10,2013-05-07 11:52:00,
2013-05-07 05:07:00,50.2,49.0,29.98,SW,233,0.0,0.0,94,0.00,,,0.00,weatherlink.com 1.10,2013-05-07 12:07:00,
2013-05-07 05:22:00,50.1,48.0,29.98,SW,233,0.0,0.0,93,0.00,,,0.00,weatherlink.com 1.10,2013-05-07 12:22:00,
2013-05-07 05:37:00,49.6,48.0,29.98,SW,233,0.0,0.0,93,0.00,,,0.00,weatherlink.com 1.10,2013-05-07 12:37:00,
2013-05-07 05:53:00,49.2,47.0,29.98,SW,233,0.0,0.0,93,0.00,,,0.00,weatherlink.com 1.10,2013-05-07 12:53:00,
2013-05-07 06:08:00,48.9,47.0,29.99,SW,233,0.0,0.0,93,0.00,,,0.00,weatherlink.com 1.10,2013-05-07 13:08:00,
2013-05-07 06:23:00,48.8,47.0,29.99,SW,233,0.0,0.0,94,0.00,,,0.00,weatherlink.com 1.10,2013-05-07 13:23:00,
2013-05-07 06:38:00,48.9,47.0,29.99,SW,233,0.0,0.0,94,0.00,,,0.00,weatherlink.com 1.10,2013-05-07 13:38:00,
2013-05-07 06:53:00,49.2,48.0,29.99,SW,233,0.0,0.0,94,0.00,,,0.00,weatherlink.com 1.10,2013-05-07 13:53:00,
2013-05-07 07:08:00,49.7,48.0,30.00,SW,233,0.0,0.0,94,0.00,,,0.00,weatherlink.com 1.10,2013-05-07 14:08:00,
2013-05-07 07:38:00,51.4,50.0,30.00,SW,233,0.0,0.0,93,0.00,,,0.00,weatherlink.com 1.10,2013-05-07 14:38:00,
2013-05-07 07:53:00,52.3,50.0,30.01,SW,233,0.0,0.0,92,0.00,,,0.00,weatherlink.com 1.10,2013-05-07 14:53:00,
2013-05-07 08:08:00,53.5,51.0,30.01,SW,233,0.0,0.0,90,0.00,,,0.00,weatherlink.com 1.10,2013-05-07 15:08:00,
2013-05-07 08:23:00,54.5,51.0,30.01,SW,233,1.0,2.0,88,0.00,,,0.00,weatherlink.com 1.10,2013-05-07 15:23:00,
2013-05-07 08:38:00,56.0,52.0,30.01,SW,233,1.0,2.0,86,0.00,,,0.00,weatherlink.com 1.10,2013-05-07 15:38:00,
2013-05-07 08:53:00,57.5,53.0,30.02,WSW,241,0.0,1.0,86,0.00,,,0.00,weatherlink.com 1.10,2013-05-07 15:53:00,
2013-05-07 14:23:00,67.6,54.0,29.99,SSW,194,0.0,7.0,61,0.00,,,0.00,weatherlink.com 1.10,2013-05-07 21:23:00,
2013-05-07 14:38:00,68.3,53.0,29.99,SW,221,3.0,9.0,59,0.00,,,0.00,weatherlink.com 1.10,2013-05-07 21:38:00,
2013-05-07 14:53:00,69.3,54.0,29.99,SSW,204,0.0,5.0,59,0.00,,,0.00,weatherlink.com 1.10,2013-05-07 21:53:00,
2013-05-07 15:08:00,71.8,55.0,29.98,WSW,238,3.0,3.0,56,0.00,,,0.00,weatherlink.com 1.10,2013-05-07 22:08:00,
2013-05-07 15:23:00,71.8,54.0,29.98,ESE,123,1.0,6.0,54,0.00,,,0.00,weatherlink.com 1.10,2013-05-07 22:23:00,
2013-05-07 15:38:00,71.1,54.0,29.97,SE,144,1.0,7.0,55,0.00,,,0.00,weatherlink.com 1.10,2013-05-07 22:38:00,
2013-05-07 15:53:00,71.0,54.0,29.97,WSW,252,2.0,4.0,55,0.00,,,0.00,weatherlink.com 1.10,2013-05-07 22:53:00,
2013-05-07 16:08:00,72.1,54.0,29.97,SW,222,0.0,7.0,53,0.00,,,0.00,weatherlink.com 1.10,2013-05-07 23:08:00,
2013-05-07 16:24:00,73.2,54.0,29.96,SW,233,3.0,5.0,51,0.00,,,0.00,weatherlink.com 1.10,2013-05-07 23:24:00,
2013-05-07 16:39:00,74.1,53.0,29.96,SW,215,3.0,8.0,48,0.00,,,0.00,weatherlink.com 1.10,2013-05-07 23:39:00,
2013-05-07 16:54:00,74.5,54.0,29.96,SE,143,3.0,5.0,49,0.00,,,0.00,weatherlink.com 1.10,2013-05-07 23:54:00,
2013-05-07 17:09:00,74.2,54.0,29.95,SSE,161,0.0,6.0,49,0.00,,,0.00,weatherlink.com 1.10,2013-05-08 00:09:00,
2013-05-07 17:24:00,74.5,53.0,29.96,SSE,150,1.0,5.0,47,0.00,,,0.00,weatherlink.com 1.10,2013-05-08 00:24:00,
2013-05-07 17:39:00,74.1,52.0,29.96,SW,223,1.0,5.0,47,0.00,,,0.00,weatherlink.com 1.10,2013-05-08 00:39:00,
2013-05-07 17:54:00,73.4,54.0,29.96,SW,221,3.0,6.0,50,0.00,,,0.00,weatherlink.com 1.10,2013-05-08 00:54:00,
2013-05-07 18:09:00,73.3,53.0,29.96,South,179,1.0,5.0,49,0.00,,,0.00,weatherlink.com 1.10,2013-05-08 01:09:00,
2013-05-07 18:24:00,71.6,52.0,29.96,SW,234,0.0,7.0,51,0.00,,,0.00,weatherlink.com 1.10,2013-05-08 01:24:00,
2013-05-07 18:39:00,71.0,52.0,29.96,SW,224,0.0,5.0,52,0.00,,,0.00,weatherlink.com 1.10,2013-05-08 01:39:00,
2013-05-07 18:54:00,70.0,51.0,29.96,SW,216,1.0,6.0,52,0.00,,,0.00,weatherlink.com 1.10,2013-05-08 01:54:00,
2013-05-07 19:09:00,69.4,52.0,29.97,South,175,0.0,3.0,54,0.00,,,0.00,weatherlink.com 1.10,2013-05-08 02:09:00,
2013-05-07 19:24:00,68.5,52.0,29.97,South,169,0.0,2.0,55,0.00,,,0.00,weatherlink.com 1.10,2013-05-08 02:24:00,
2013-05-07 19:39:00,67.2,51.0,29.97,South,169,0.0,1.0,57,0.00,,,0.00,weatherlink.com 1.10,2013-05-08 02:39:00,
2013-05-07 19:54:00,66.7,51.0,29.98,South,169,0.0,1.0,58,0.00,,,0.00,weatherlink.com 1.10,2013-05-08 02:54:00,
2013-05-07 20:09:00,65.0,52.0,29.99,ENE,57,2.0,2.0,62,0.00,,,0.00,weatherlink.com 1.10,2013-05-08 03:09:00,
2013-05-07 20:24:00,62.6,51.0,29.99,NE,46,1.0,2.0,67,0.00,,,0.00,weatherlink.com 1.10,2013-05-08 03:24:00,
2013-05-07 20:39:00,61.3,51.0,30.00,NE,46,0.0,1.0,70,0.00,,,0.00,weatherlink.com 1.10,2013-05-08 03:39:00,
2013-05-07 20:54:00,60.5,52.0,30.01,NE,40,0.0,1.0,74,0.00,,,0.00,weatherlink.com 1.10,2013-05-08 03:54:00,
2013-05-07 21:09:00,59.4,52.0,30.01,NNE,17,0.0,3.0,76,0.00,,,0.00,weatherlink.com 1.10,2013-05-08 04:09:00,
2013-05-07 21:24:00,58.4,52.0,30.02,NNE,17,0.0,1.0,79,0.00,,,0.00,weatherlink.com 1.10,2013-05-08 04:24:00,
2013-05-07 21:39:00,57.4,52.0,30.02,North,5,0.0,2.0,81,0.00,,,0.00,weatherlink.com 1.10,2013-05-08 04:39:00,
2013-05-07 21:54:00,56.6,51.0,30.02,North,5,0.0,2.0,82,0.00,,,0.00,weatherlink.com 1.10,2013-05-08 04:54:00,
2013-05-07 22:09:00,55.7,51.0,30.02,North,5,0.0,1.0,84,0.00,,,0.00,weatherlink.com 1.10,2013-05-08 05:09:00,
2013-05-07 22:24:00,55.0,51.0,30.02,North,5,0.0,1.0,85,0.00,,,0.00,weatherlink.com 1.10,2013-05-08 05:24:00,
2013-05-07 22:39:00,54.4,50.0,30.03,North,5,0.0,1.0,86,0.00,,,0.00,weatherlink.com 1.10,2013-05-08 05:39:00,
2013-05-07 22:54:00,53.9,51.0,30.03,North,5,0.0,0.0,88,0.00,,,0.00,weatherlink.com 1.10,2013-05-08 05:54:00,
2013-05-07 23:09:00,53.4,50.0,30.03,North,5,0.0,1.0,88,0.00,,,0.00,weatherlink.com 1.10,2013-05-08 06:09:00,
2013-05-07 23:24:00,52.9,50.0,30.03,North,5,0.0,0.0,89,0.00,,,0.00,weatherlink.com 1.10,2013-05-08 06:24:00,
2013-05-07 23:39:00,52.4,50.0,30.03,North,5,0.0,0.0,90,0.00,,,0.00,weatherlink.com 1.10,2013-05-08 06:39:00,
2013-05-07 23:54:00,52.0,50.0,30.03,North,5,0.0,0.0,91,0.00,,,0.00,weatherlink.com 1.10,2013-05-08 06:54:00,